TimeIST,TemperatureF,Dew PointF,Humidity,Sea Level PressureIn,VisibilityMPH,Wind Direction,Wind SpeedMPH,Gust SpeedMPH,PrecipitationIn,Events,Conditions,WindDirDegrees,DateUTC
2:30 AM,45,36,61,30.08,1,Calm,Calm,,,,Smoke,,2014-01-07 21:00:00
5:30 AM,46,35,55,30.09,1,Calm,Calm,,,,Smoke,,2014-01-08 00:00:00
7:00 AM,44.6,33.8,66,30.06,1.2,Variable,2.3,-,N/A,,Smoke,0,2014-01-08 01:30:00
8:30 AM,46,35,55,30.11,1,East,2.3,,,,Smoke,90,2014-01-08 03:00:00
9:00 AM,55.4,35.6,47,30.12,1.6,ESE,5.8,-,N/A,,Smoke,110,2014-01-08 03:30:00
11:00 AM,60.8,35.6,39,30.12,1.9,SE,10.4,-,N/A,,Smoke,130,2014-01-08 05:30:00
11:30 AM,65,35,22,30.07,1,SE,11.5,,,,Haze,140,2014-01-08 06:00:00
12:00 PM,66.2,35.6,32,30.09,2.5,ESE,10.4,-,N/A,,Haze,120,2014-01-08 06:30:00
1:00 PM,68.0,35.6,30,30.04,2.5,SE,10.4,-,N/A,,Haze,140,2014-01-08 07:30:00
2:00 PM,68.0,32.0,26,30.01,2.5,Variable,9.2,-,N/A,,Haze,0,2014-01-08 08:30:00
2:30 PM,69,35,17,29.97,2,SE,6.9,,,,Haze,140,2014-01-08 09:00:00
4:00 PM,69.8,37.4,31,29.98,3.1,SE,6.9,-,N/A,,Haze,140,2014-01-08 10:30:00
5:00 PM,68.0,39.2,35,29.98,3.1,SE,6.9,-,N/A,,Haze,140,2014-01-08 11:30:00
5:30 PM,66,41,28,29.96,2,SE,4.6,,,,Haze,140,2014-01-08 12:00:00
6:00 PM,64.4,41.0,42,29.98,2.5,ESE,4.6,-,N/A,,Haze,110,2014-01-08 12:30:00
7:00 PM,64.4,41.0,42,30.01,1.6,East,4.6,-,N/A,,Haze,100,2014-01-08 13:30:00
8:00 PM,59.0,41.0,51,30.01,1.2,East,3.5,-,N/A,,Smoke,80,2014-01-08 14:30:00
8:30 PM,57,42,45,30.01,1,East,4.6,,,,Smoke,90,2014-01-08 15:00:00
9:00 PM,57.2,41.0,55,30.04,1.2,East,5.8,-,N/A,,Smoke,90,2014-01-08 15:30:00
10:00 PM,59.0,42.8,55,30.04,1.2,East,10.4,-,N/A,,Smoke,90,2014-01-08 16:30:00
11:00 PM,57.2,42.8,59,30.04,1.2,East,9.2,-,N/A,,Smoke,80,2014-01-08 17:30:00
11:30 PM,57,43,49,29.99,1,East,5.8,,,,Smoke,90,2014-01-08 18:00:00